[[{"header":{"parameterUnit":"m.s-1","parameterCategory":1,"la1":30.2991,"la2":30.254,"lo1":-89.0895,"lo2":-89.0444,"dy":0.0017,"dx":0.0017,"nx":28,"ny":28,"refTime":"2025-12-03T03:00:00:Z","depth":0,"parameterNumber":2,"parameterNumberName":"U-component_of_WINDS"},"data":[0,0,0,0,0,0,0,0,0,0,0,0,0,0,0,0,0,0,0,0,0,0,0,0,0,0,0,0,0,0,0,0,0,0,0,0,0,0,0,0,0,0,0,0,0,0,0,0,0,0,0,0,0,0,0,0,0,0,-2.7011,-2.701,0,-2.6936,-2.6935,-2.6934,-2.684,-2.6839,-2.6837,-2.6836,-2.6756,-2.6755,-2.6755,0,0,0,0,0,0,0,0,0,0,0,0,0,-2.7071,-2.707,-2.7011,-2.701,-2.7009,-2.6936,-2.6935,-2.6934,-2.6841,-2.6839,-2.6837,-2.6835,-2.6756,-2.6756,-2.6755,0,0,0,0,0,0,0,0,0,0,0,0,0,-2.7025,-2.707,-2.7011,-2.6954,-2.6948,-2.6936,-2.6935,-2.6934,-2.6841,-2.6839,-2.6837,-2.6835,-2.6757,-2.6756,-2.6755,-2.6792,0,0,-2.6751,-2.6751,0,0,0,0,0,0,0,0,-2.7028,-2.7023,-2.6963,-2.6958,-2.6951,-2.6895,-2.6927,-2.6886,-2.6842,-2.6882,-2.6836,-2.6833,-2.6804,-2.6799,-2.679,-2.6789,-2.6785,-2.6751,-2.675,-2.675,-2.675,0,0,0,0,0,0,0,-2.7031,-2.7026,-2.6981,-2.6963,-2.6955,-2.6931,-2.6922,-2.6919,-2.6856,-2.6878,-2.6871,-2.6864,-2.68,-2.6791,-2.6787,-2.6784,-2.6751,-2.675,-2.6749,-2.6749,-2.681,-2.6812,0,0,0,0,0,0,-2.7044,-2.7029,-2.6984,-2.6979,-2.6985,-2.6932,-2.6922,-2.6916,-2.6856,-2.6845,-2.6866,-2.6859,-2.6794,-2.6788,-2.6784,-2.6825,-2.675,-2.6749,-2.6748,-2.6807,-2.681,-2.6813,0,0,0,0,0,0,-2.7045,-2.704,-2.6987,-2.7002,-2.6994,-2.6933,-2.6927,-2.6915,-2.6906,-2.6847,-2.6835,-2.6868,-2.6792,-2.6785,-2.6791,-2.6821,-2.6748,-2.6747,-2.6805,-2.6808,-2.6811,-2.6907,0,0,0,0,0,0,-2.7047,-2.7042,-2.7056,-2.7003,-2.6993,-2.6997,-2.6929,-2.6915,-2.6905,-2.6896,-2.6845,-2.6835,-2.679,-2.6793,-2.679,-2.6818,-2.6746,-2.6802,-2.6806,-2.681,-2.6901,-2.6913,-2.6923,0,0,0,0,0,-2.705,-2.7085,-2.7057,-2.7052,-2.701,-2.6999,-2.6993,-2.6941,-2.6907,-2.6921,-2.6883,-2.6837,-2.6818,-2.6795,-2.679,-2.6818,-2.68,-2.6805,-2.681,-2.6895,-2.691,-2.6923,0,0,0,0,0,0,-2.7142,-2.7077,-2.7046,-2.7065,-2.7038,-2.6983,-2.6999,-2.6958,-2.6939,-2.6932,-2.6867,-2.6857,-2.687,-2.6844,-2.682,-2.6851,-2.6802,-2.6806,-2.6868,-2.6882,-2.6893,-2.69,-2.6746,0,0,0,0,0,-2.7165,-2.7162,-2.7105,-2.7127,-2.7116,-2.706,-2.7053,-2.7015,-2.6984,-2.6972,-2.6934,-2.6905,-2.6892,-2.6885,-2.687,-2.6896,-2.6883,-2.6912,-2.6924,-2.6933,-2.6939,-2.695,-2.6963,-2.6829,-2.6829,-2.6829,0,0,-2.7212,-2.7176,-2.7178,-2.7145,-2.712,-2.7117,-2.7051,-2.7051,-2.7048,-2.6971,-2.6975,-2.6946,-2.6909,-2.6925,-2.693,-2.6904,-2.6972,-2.694,-2.6948,-2.6948,-2.6957,-2.6969,-2.6981,-2.6833,-2.6832,-2.6832,0,0,-2.7296,-2.7269,-2.7285,-2.7261,-2.7224,-2.7186,-2.719,-2.7141,-2.7119,-2.7122,-2.7064,-2.7059,-2.7039,-2.7015,-2.7,-2.7075,-2.7032,-2.7072,-2.7132,-2.7144,-2.7155,-2.7164,-2.7191,-2.7202,-2.7077,-2.7077,-2.7077,0,-2.7359,-2.7354,-2.7298,-2.7302,-2.729,-2.7221,-2.7236,-2.7215,-2.7175,-2.7167,-2.7138,-2.7112,-2.7082,-2.7091,-2.711,-2.71,-2.7102,-2.7078,-2.7158,-2.7166,-2.7174,-2.7199,-2.721,-2.7082,-2.7082,-2.7081,-2.7081,0,-2.7434,-2.7431,-2.7448,-2.7413,-2.7401,-2.7411,-2.7356,-2.7351,-2.7314,-2.728,-2.7283,-2.7244,-2.7221,-2.722,-2.7183,-2.7224,-2.7209,-2.717,-2.7119,-2.7193,-2.7216,-2.7225,-2.709,-2.7088,-2.7086,-2.7085,0,0,-2.7576,-2.7509,-2.7516,-2.7499,-2.7452,-2.7449,-2.7455,-2.7433,-2.743,-2.7404,-2.7408,-2.7392,-2.7355,-2.7338,-2.7298,-2.7309,-2.7371,-2.7268,-2.7266,-2.7289,-2.7414,-2.7446,-2.7458,-2.7342,-2.7343,-2.7345,-2.7418,0,-2.7653,-2.7661,-2.7611,-2.7632,-2.7629,-2.7563,-2.7568,-2.754,-2.7507,-2.7499,-2.7461,-2.7452,-2.7404,-2.7394,-2.7401,-2.7363,-2.7396,-2.7356,-2.7344,-2.7345,-2.7357,-2.7469,-2.7502,-2.7573,-2.7426,-2.7428,-2.7429,0,-2.7744,-2.7725,-2.7746,-2.7699,-2.7695,-2.7701,-2.7677,-2.767,-2.7636,-2.7611,-2.7593,-2.7546,-2.7548,-2.7499,-2.75,-2.7474,-2.7466,-2.7446,-2.7447,-2.7445,-2.7393,-2.7472,-2.7595,-2.7606,-2.7442,-2.7441,-2.744,0,-2.7848,-2.7826,-2.7836,-2.7823,-2.7768,-2.7774,-2.775,-2.7714,-2.7704,-2.7682,-2.7674,-2.7652,-2.7641,-2.7624,-2.7573,-2.7542,-2.758,-2.7527,-2.756,-2.7561,-2.7572,-2.7572,-2.7697,-2.7565,-2.7565,-2.7564,-2.7564,0,-2.794,-2.7956,-2.7882,-2.7889,-2.7904,-2.7845,-2.7862,-2.7832,-2.78,-2.7799,-2.7739,-2.7739,-2.7671,-2.7663,-2.7622,-2.763,-2.7624,-2.7604,-2.7594,-2.761,-2.7613,-2.7605,-2.7599,-2.7567,-2.7567,-2.7566,-2.7566,0,-2.8059,-2.801,-2.8017,-2.7963,-2.795,-2.7965,-2.7918,-2.7922,-2.7885,-2.7884,-2.788,-2.7822,-2.781,-2.7757,-2.7731,-2.7703,-2.7725,-2.7703,-2.7737,-2.773,-2.7767,-2.7765,-2.7892,-2.7905,-2.7764,-2.7765,-2.7766,0,-2.8122,-2.8133,-2.8081,-2.8076,-2.8056,-2.805,-2.8039,-2.798,-2.7972,-2.7933,-2.7941,-2.7924,-2.7907,-2.789,-2.7845,-2.7824,-2.7802,-2.7848,-2.7799,-2.7816,-2.7804,-2.7805,-2.7806,-2.786,-2.7861,-2.7863,-2.7864,0,-2.8239,-2.8214,-2.8202,-2.8182,-2.8171,-2.8152,-2.8129,-2.8128,-2.8062,-2.8055,-2.8043,-2.803,-2.8003,-2.7987,-2.7959,-2.7934,-2.7888,-2.788,-2.7886,-2.7905,-2.7925,-2.7915,-2.7767,-2.7877,-2.7876,-2.7875,-2.7874,-2.7874,-2.8333,-2.834,-2.8305,-2.8293,-2.8269,-2.8249,-2.825,-2.8213,-2.8202,-2.8177,-2.8142,-2.8134,-2.8098,-2.8056,-2.8034,-2.8026,-2.8,-2.801,-2.8012,-2.8016,-2.8025,-2.7925,-2.802,-2.802,-2.8019,-2.8019,-2.8019,0,-2.8449,-2.8423,-2.8412,-2.8382,-2.8373,-2.8331,-2.8303,-2.8298,-2.8292,-2.8262,-2.8247,-2.8232,-2.8215,-2.8169,-2.8147,-2.815,-2.8128,-2.8146,-2.8146,-2.8141,-2.8049,-2.8046,-2.8164,-2.8164,-2.8164,-2.8164,-2.8164,-2.8164,-2.8508,-2.8518,-2.8489,-2.8485,-2.8458,-2.8451,-2.8439,-2.8419,-2.8396,-2.8382,-2.8368,-2.8338,-2.8302,-2.8277,-2.826,-2.8246,-2.8241,-2.8267,-2.8246,-2.8161,-2.8148,-2.8134,-2.8131,-2.8266,-2.8266,-2.834,-2.834,-2.8341]},{"header":{"parameterUnit":"m.s-1","parameterCategory":1,"la1":30.2991,"la2":30.254,"lo1":-89.0895,"lo2":-89.0444,"dy":0.0017,"dx":0.0017,"nx":28,"ny":28,"refTime":"2025-12-03T03:00:00:Z","depth":0,"parameterNumber":3,"parameterNumberName":"V-component_of_WINDS"},"data":[0,0,0,0,0,0,0,0,0,0,0,0,0,0,0,0,0,0,0,0,0,0,0,0,0,0,0,0,0,0,0,0,0,0,0,0,0,0,0,0,0,0,0,0,0,0,0,0,0,0,0,0,0,0,0,0,0,0,-7.8419,-7.842,0,-7.8523,-7.8524,-7.8525,-7.8468,-7.8465,-7.8463,-7.846,-7.8555,-7.856,-7.8565,0,0,0,0,0,0,0,0,0,0,0,0,0,-7.8162,-7.8167,-7.8419,-7.842,-7.8422,-7.8523,-7.8524,-7.8526,-7.8469,-7.8465,-7.8462,-7.8459,-7.8554,-7.856,-7.8566,0,0,0,0,0,0,0,0,0,0,0,0,0,-7.827,-7.8168,-7.8419,-7.8406,-7.8406,-7.8522,-7.8524,-7.8526,-7.8469,-7.8465,-7.8461,-7.8457,-7.8552,-7.8559,-7.8567,-7.8699,0,0,-7.859,-7.8594,0,0,0,0,0,0,0,0,-7.8264,-7.8279,-7.8406,-7.8407,-7.8407,-7.8479,-7.8468,-7.8584,-7.847,-7.8445,-7.846,-7.8455,-7.8532,-7.8541,-7.857,-7.8703,-7.8707,-7.8591,-7.8596,-7.8599,-7.8601,0,0,0,0,0,0,0,-7.8257,-7.8275,-7.846,-7.8408,-7.8409,-7.8391,-7.8402,-7.849,-7.8511,-7.8447,-7.8443,-7.8457,-7.8532,-7.8563,-7.8572,-7.8709,-7.8591,-7.8598,-7.8602,-7.8605,-7.8955,-7.896,0,0,0,0,0,0,-7.8251,-7.8269,-7.8456,-7.8463,-7.8324,-7.84,-7.8412,-7.846,-7.851,-7.8513,-7.846,-7.8454,-7.8551,-7.8563,-7.8575,-7.8732,-7.8599,-7.8606,-7.8611,-7.8951,-7.8956,-7.8961,0,0,0,0,0,0,-7.8246,-7.8269,-7.8452,-7.8365,-7.8387,-7.8409,-7.8463,-7.8464,-7.8495,-7.852,-7.8522,-7.8489,-7.8548,-7.8564,-7.8669,-7.8735,-7.861,-7.8617,-7.8945,-7.8952,-7.8959,-7.9048,0,0,0,0,0,0,-7.8239,-7.8267,-7.832,-7.8367,-7.8392,-7.8548,-7.8467,-7.8469,-7.851,-7.8502,-7.8547,-7.855,-7.8546,-7.8658,-7.8677,-7.8743,-7.8623,-7.8939,-7.8948,-7.8957,-7.9039,-7.9057,-7.9073,0,0,0,0,0,-7.823,-7.8338,-7.8323,-7.8346,-7.8459,-7.8552,-7.8566,-7.8562,-7.8515,-7.8567,-7.8583,-7.8549,-7.8725,-7.8669,-7.869,-7.8759,-7.8935,-7.8946,-7.8956,-7.9032,-7.9054,-7.9072,0,0,0,0,0,0,-7.8293,-7.8344,-7.8327,-7.8455,-7.85,-7.8542,-7.8607,-7.8586,-7.8642,-7.8632,-7.8622,-7.8633,-7.8742,-7.8761,-7.8698,-7.889,-7.8822,-7.8837,-7.8873,-7.8894,-7.891,-7.8902,-7.8629,0,0,0,0,0,-7.8324,-7.8399,-7.8437,-7.8546,-7.857,-7.8585,-7.8625,-7.8619,-7.8664,-7.8681,-7.8705,-7.8747,-7.8812,-7.8854,-7.8915,-7.9043,-7.9051,-7.9101,-7.9118,-7.9131,-7.9143,-7.9211,-7.9234,-7.8996,-7.8996,-7.8995,0,0,-7.8383,-7.8421,-7.8468,-7.856,-7.8594,-7.8668,-7.8601,-7.8682,-7.8737,-7.8692,-7.8794,-7.8814,-7.8859,-7.8977,-7.9029,-7.8996,-7.9212,-7.9145,-7.9155,-7.916,-7.9224,-7.9247,-7.9267,-7.9003,-7.9001,-7.9,0,0,-7.8532,-7.8569,-7.8663,-7.87,-7.8755,-7.8765,-7.8788,-7.8834,-7.8846,-7.8949,-7.8918,-7.898,-7.9092,-7.9127,-7.9158,-7.9323,-7.9292,-7.9343,-7.9428,-7.9495,-7.9513,-7.953,-7.9586,-7.9607,-7.9355,-7.9355,-7.9356,0,-7.8598,-7.8713,-7.8713,-7.8799,-7.8839,-7.8808,-7.8901,-7.8936,-7.9006,-7.9033,-7.8996,-7.9137,-7.9165,-7.929,-7.933,-7.9358,-7.9381,-7.9336,-7.9511,-7.9528,-7.9543,-7.9597,-7.9619,-7.9361,-7.936,-7.936,-7.9359,0,-7.8792,-7.8872,-7.8942,-7.9015,-7.9063,-7.9152,-7.9163,-7.9211,-7.9202,-7.9215,-7.9319,-7.9353,-7.942,-7.945,-7.9439,-7.9573,-7.955,-7.9513,-7.9444,-7.9572,-7.9622,-7.9642,-7.9369,-7.9367,-7.9365,-7.9364,0,0,-7.8979,-7.9055,-7.908,-7.9113,-7.9172,-7.9232,-7.9319,-7.939,-7.943,-7.948,-7.9551,-7.9648,-7.9614,-7.9651,-7.9644,-7.9703,-7.9829,-7.9658,-7.9659,-7.9687,-7.9976,-8.0002,-8.0026,-7.9811,-7.9815,-7.9818,-7.9971,0,-7.913,-7.9287,-7.929,-7.9432,-7.9505,-7.9477,-7.9553,-7.9595,-7.961,-7.9672,-7.9686,-7.9755,-7.9706,-7.9728,-7.9786,-7.9802,-7.9886,-7.9791,-7.9873,-7.9876,-7.986,-8.0053,-8.008,-8.0223,-7.9991,-7.9994,-7.9997,0,-7.9326,-7.9387,-7.9538,-7.9588,-7.9618,-7.9687,-7.9751,-7.9812,-7.9859,-7.9865,-7.9908,-7.9893,-7.9979,-7.9911,-8.0027,-7.9962,-7.9996,-8.0009,-8.0014,-8.0019,-7.9942,-8.006,-8.0268,-8.0289,-8.0028,-8.0026,-8.0023,0,-7.9446,-7.9565,-7.9671,-7.97,-7.9761,-7.981,-7.9837,-7.9881,-7.9923,-7.9978,-8.0005,-8.0069,-8.0102,-8.0151,-8.0152,-8.0103,-8.0269,-8.0201,-8.0274,-8.0274,-8.0307,-8.0305,-8.0521,-8.0334,-8.0334,-8.0333,-8.0333,0,-7.9612,-7.9704,-7.9726,-7.979,-7.9893,-7.9895,-7.9995,-8.0017,-8.0057,-8.0123,-8.0102,-8.0163,-8.0164,-8.0225,-8.0227,-8.0322,-8.0338,-8.0343,-8.0342,-8.0344,-8.0343,-8.0363,-8.0352,-8.0339,-8.0338,-8.0337,-8.0336,0,-7.9761,-7.978,-7.9893,-7.9944,-7.9958,-8.0031,-8.0072,-8.0132,-8.0147,-8.0231,-8.025,-8.0271,-8.0344,-8.0351,-8.0434,-8.0435,-8.0549,-8.0538,-8.0534,-8.0531,-8.0603,-8.0595,-8.0838,-8.0869,-8.0664,-8.0666,-8.0668,0,-7.9865,-7.9936,-7.9996,-8.0041,-8.0072,-8.0144,-8.0189,-8.0194,-8.024,-8.03,-8.0352,-8.0424,-8.048,-8.0596,-8.0616,-8.0679,-8.0668,-8.0749,-8.0677,-8.0677,-8.0666,-8.0661,-8.0667,-8.0762,-8.0764,-8.0766,-8.0767,0,-8.0046,-8.0053,-8.012,-8.0191,-8.0245,-8.03,-8.0351,-8.0387,-8.0399,-8.0451,-8.0527,-8.0572,-8.0658,-8.0728,-8.079,-8.0814,-8.0792,-8.0791,-8.0811,-8.0811,-8.0805,-8.0807,-8.0569,-8.0784,-8.0783,-8.0781,-8.078,-8.078,-8.0174,-8.0236,-8.0289,-8.0364,-8.0404,-8.0453,-8.0513,-8.0537,-8.0601,-8.0675,-8.0673,-8.0756,-8.0801,-8.0883,-8.0912,-8.0975,-8.0947,-8.0976,-8.0983,-8.0989,-8.0996,-8.0799,-8.0986,-8.0986,-8.0985,-8.0985,-8.0984,0,-8.0353,-8.0386,-8.0456,-8.0531,-8.0589,-8.0569,-8.0625,-8.0674,-8.0748,-8.0795,-8.0852,-8.0939,-8.1007,-8.1034,-8.11,-8.1145,-8.1136,-8.1161,-8.1156,-8.1162,-8.1018,-8.0993,-8.1167,-8.1167,-8.1167,-8.1167,-8.1167,-8.1167,-8.0452,-8.0556,-8.0569,-8.0692,-8.0724,-8.0809,-8.0842,-8.0886,-8.0923,-8.1022,-8.108,-8.1099,-8.1137,-8.1206,-8.1266,-8.1272,-8.1296,-8.1326,-8.1327,-8.1191,-8.1172,-8.1154,-8.1131,-8.1332,-8.1332,-8.1466,-8.1467,-8.1468]}]]